Погода в Тайшете

Погода в Тайшете : погода сейчас, прогноз погоды и архив. Всё, что Вы хотите узнать о погоде в Тайшете!

Хотите узнать прогноз погоды в Тайшете? Тогда Вам сюда: Погода в Тайшете

Поиск расширенной информации на нашем сайте:

Другие новости

Новости СМИ2

Главная страница сайта

Новости сайта

03.07.2017

Напоминаем, что на нашем специализированном сайте Метеоцентр.Азия вы можете получить высокодетализированные автоматические прогнозы погоды по пунктам России, СНГ и мира в авиационном формате (включающие направление и скорость ветра, видимость, явления погоды, количество и форму облачности, нижнюю и верхнюю границу облачности).

Рекомендуем: Дренажная помпа кондиционера.

Погода в Тайшете - сегодня

Время (UTC), дата Ветер
(°,м/с) 
Видим.   Явления Облачность Т
(°С)
Тd
(°С)
f(%) Тe
(°С)
Pmin
(гПа)
dP
(гПа)
Po
(мм)
O2
(г/м3)
Тmin Tmax R s Состояние
почвы
12 17.05.18 240 (ЮЗ) 4{12}  20000 м  слаб. ливневой дождь  10/10 600 м кучево-дожд. 
[Cb cap]
+5.6 +4.4 92 +4  1007.7  0.4  728  287    +15.6  0.3     
15 17.05.18 250 (З) н/о  {ливн. осадки}  10/8 600 м кучево-дожд., средняя, верхняя 
[Cb cap|Ac lent|Ci fib]
+5.1 +3.4 89 +4  1008.3  0.5  728  288           
18 17.05.18 290 (З) н/о  {ливн. осадки}  10/10 600 м кучево-дожд. 
[Cb cap]
+4.3 +2 85 +3  1010.1  1.7  730  289           
21 17.05.18 300 (СЗ) 20000 м    10/8 600 м кучево-дожд., средняя, верхняя 
[Cb cap|Ac lent|Ci fib]
+1.4 -3.4 70 -1  1013.4  2.6  732  294           
00 18.05.18 290 (З) 20000 м    10/6 600 м кучево-дожд., средняя, верхняя 
[Cb cap|Ac trans|Ci fib]
+1.5 -3.6 69 1015.3  1.9  733  294  +0.5    0.0     
03 18.05.18 260 (З) 20000 м    10/8 600 м кучево-дожд., средняя, верхняя 
[Cb cap|Ac trans|Ci fib]
+2.9 -4 60 +1  1015.7  0.6  734  293           
06 18.05.18 250 (З) 20000 м    10/8 600 м кучево-дожд., средняя, верхняя 
[Cb cap|Ac trans|Ci fib]
+4.8 -4.3 52 +3  1015.7  0.2  734  291           
09 18.05.18 270 (З) 20000 м    10/8 600 м кучево-дожд., средняя, верхняя 
[Cb cap|Ac trans|Ci fib]
+6.3 -5.6 42 +5  1014.8  -0.6  733  289           
12 18.05.18 340 (С) 20000 м    10/6 600 м кучево-дожд., средняя, верхняя 
[Cb cap|Ac trans|Cc]
+6.1 -4.7 46 +5  1014.7  -0.2  733  289    +7.3       
15 18.05.18 290 (З) н/о    10/8 600 м кучево-дожд., средняя, верхняя 
[Cb cap|Ac trans|Ci fib]
+3.7 -4.4 55 +3  1016.5  1.5  734  292           
18 18.05.18 250 (З) н/о    3/0 верхняя 
[Ci fib]
+0.2 -3.1 78 +1  1018.3  1.2  735  296           
21 18.05.18 150 (ЮВ) 20000 м    4/3 1000 м средняя, верхняя 
[Sc|Ac trans|Ci fib]
-2.6 -3.6 93 -2  1017.8  -0.9  734  299           
00 19.05.18 130 (ЮВ) 20000 м    4/0 верхняя 
[Ci fib]
+1.9 -2.1 75 1016.8  -0.2  734  294  -3.1         
03 19.05.18 140 (ЮВ) 20000 м    10/0 верхняя 
[Cs]
+7.3 -1.8 52 +6  1013.2  -2.8  732  287           
06 19.05.18 130 (ЮВ) 5{10}  20000 м    10/3 1000 м верхняя 
[Cu hum|Cs]
+11.8 -2.3 37 +11  1009.7  -2.8  730  282           
09 19.05.18 120 (ЮВ) 20000 м    10/3 600 м кучево-дожд., средняя, верхняя 
[Cb cap|Ac lent|Ci]
+13.9 -1.3 35 +14  1006.5  -2.8  728  279           
12 19.05.18 110 (В) 20000 м    8/3 600 м кучево-дожд., средняя, верхняя 
[Cb cap|Ac lent|Cc]
+13.5 -2.8 32 +13  1005  -1.6  727  279    +14.4       
18 19.05.18 260 (З) н/о  слаб. ливневой снег  10/10 600 м кучево-дожд. 
[Cb cap]
+1.7 +1.7 100 1013.3  1.5  732  293           
21 19.05.18 260 (З) 3{10}  20000 м    10/8 300 м кучево-дожд., средняя, верхняя 
[Cb cap|Ac trans|Cs]
+1.6 +0.5 92 1015.5  2.1  733  294           
00 20.05.18 250 (З) 5-10{10}  20000 м    8/4 600 м кучево-дожд., средняя, верхняя 
[Cb cap|Ac lent|Cs]
+2.2 -0.8 81 1016.5  734  293  +0.5    <0.5  мокрый или
старый снег
50-90% 
12 20.05.18 250 (З) 7-13{14}  20000 м  в посл. час ливневой снег  10/10 600 м кучево-дожд. 
[Cb cap]
+3 -1.1 74 1021.5  0.6  738  294    +6.9  0.3     
15 20.05.18 250 (З) 3{13}  н/о    10/8 600 м кучево-дожд., верхняя 
[Cb cap|Ci fib]
+2.7 -1.2 75 +1  1021.5  738  294           
21 20.05.18 270 (З) 20000 м  {ливн. осадки}  10/10 600 м кучево-дожд. 
[Cb cap]
+0.8 +0.8 100 -2  1021.5  737  296           
00 21.05.18 290 (З) 20000 м  в посл. час ливневой дождь  10/10 600 м кучево-дожд. 
[Cb cap]
+1 +1 100 -1  1022.3  0.9  738  296  +0.4    0.6    влажная 
03 21.05.18 280 (З) 20000 м  в посл. час ливневой дождь  10/10 600 м кучево-дожд. 
[Cb cap]
+2.6 +1.6 93 1022.3  0.1  738  294           
Время (UTC), дата Ветер
(°,м/с) 
Видим.   Явления Облачность Т
(°С)
Тd
(°С)
f(%) Тe
(°С)
Pmin
(гПа)
dP
(гПа)
Po
(мм)
O2
(г/м3)
Тmin Tmax R s Состояние
почвы

Для получения пояснительной информации подведите курсор к названию столбца.

ПОГОДА в Тайшете - архив

Всё, что Вы хотите узнать о погоде в Тайшете - удобно и подробно!

Выберите нужную дату (начиная с 1 января 2015* года) и нажмите кнопку "Найти".
Будут отображены архивные сводки погоды по пункту Тайшет, начиная с указанной даты.


Отображать данные в формате CSV (для использования в таблицах Excel)


Внимание! Наш архив погоды предназначен исключительно для личного некоммерческого использования в познавательных целях. Если Вам необходимы официальные справки о состоянии погоды (для производственных, юридических, коммерческих и т.п. целей), обращайтесь в органы Росгидромета.

*Примечание: данная дата относится к архиву по метеостанциям СССР (Россия, СНГ, Балтия).
Архив по метеостанциям Зарубежной Европы и Азии (кроме Китая) хранится 10 дней, по другим регионам земного шара (Китай, Африка, Америка, Австралия, Океания) - 1 день.

Тайшет - район местоположения метеостанции


Название, широта, долгота, высота метеостанции:
Тайшет 55.9°ш. 98°д. 307 м над ур. моря [Российская Федерация]

Дополнительная информация

В oтличие oт бoльшинства пoгoдных сайтoв мы публикуем пoдрoбную метеoинфoрмацию в детальнoм прoфессиoнальнoм фoрмате.

Характеристики температуры и влажнoсти вoздуха измеряются на высoте 2 м в тени вдали oт зданий и деревьев.
Скoрoсть ветра измеряется на высoте 10 м (на урoвне рoста челoвека скoрoсть ветра ниже в 1.5-2 раза). Если метеoстанция нахoдится в гoрoде или в лесу, тo скoрoсть ветра занижена на 2-4 м/с пo сравнению с oткрытым местoм. Скoрoсть ветра над акватoриями крупных рек и oзёр, а также на вершинах хoлмoв на 2-5 м/с выше, чем в oбычных услoвиях.
Атмoсфернoе давление в разных тoчках местнoсти мoжет значительнo oтличаться oт давления на метеoстанции, в зависимoсти oт услoвий рельефа (при пoдъёме на 10 м давление пoнижается примернo на 1 мм рт.ст.).